Tracking 29892 objects as of 21-Nov-2024
HD Live streaming from Space Station
objects crossing your sky now

NUSAT-38 (MARIA AGNESI)

Track NUSAT-38 (MARIA AGNESI) now!
10-day predictions


NORAD ID: 56202
Int'l Code: 2023-054AA
Perigee: 443.9 km
Apogee: 453.1 km
Inclination: 97.3 °
Period: 93.4 minutes
Semi major axis: 6819 km
RCS: Unknown
Launch date: April 15, 2023
Source: Argentina (ARGN)
Launch site: AIR FORCE WESTERN TEST RANGE (AFWTR)
Your satellite tracking list
Your tracking list is empty




NASA's NSSDC Master Catalog

Two Line Element Set (TLE):
1 56202U 23054AA  24326.12520560  .00042378  00000-0  10045-2 0  9993
2 56202  97.3447 222.6548 0006778 359.2468   0.8767 15.41603466 90165
Source of the keplerian elements: AFSPC